Regional Weather Roundup
Issued by NWS Jackson, KY

Home | Current Version | Previous Version | Graphics & Text | Print | Product List | Glossary On
Versions: 1 2 3 4 5 6 7 8 9 10 11 12 13 14 15 16 17 18 19 20 21 22 23 24 25 26 27 28 29 30 31 32 33 34 35 36 37 38 39 40 41 42 43 44 45 46 47 48 49 50
000
ASUS43 KJKL 271210
RWRJKL

EAST KENTUCKY HOURLY WEATHER ROUNDUP
NATIONAL WEATHER SERVICE JACKSON KY
800 AM EDT TUE SEP 27 2016

NOTE: "FAIR" INDICATES FEW OR NO CLOUDS BELOW 12,000 FEET WITH
NO SIGNIFICANT WEATHER AND/OR OBSTRUCTIONS TO VISIBILITY.

* THESE REPORTS ARE NOT UNDER NWS QUALITY CONTROL AND MAY NOT
  REPORT WEATHER SUCH AS PRECIPITATION AND FOG.

KYZ079-080-083-085-087-088-110-112-115-119-120-271300
...EASTERN KENTUCKY...

CITY           SKY/WX    TMP DP  RH WIND       PRES   REMARKS
JACKSON        FOG       51  50  96 CALM      30.05S VSB<1/4
6HR MIN TEMP:  50; 6HR MAX TEMP:  56;

LONDON         PTCLDY    47  45  93 CALM      30.06F FOG
6HR MIN TEMP:  46; 6HR MAX TEMP:  55;

SOMERSET*      FOG       50  50 100 CALM      30.08S VSB<1/4
MONTICELLO*    FOG       48  48 100 CALM      30.08F VSB<1/4
6HR MIN TEMP:  47; 6HR MAX TEMP:  51;

WILLIAMSBURG*  CLOUDY    48  48 100 CALM      30.06F VSB<1/4
MIDDLESBORO*   CLOUDY    60  54  80 CALM      30.05F
6HR MIN TEMP:  60; 6HR MAX TEMP:  66;

HARLAN APT*    CLOUDY    55  52  88 CALM      30.06S
PIKE CO APT*     N/A     54  54 100 CALM      30.06S
BIG SANDY APT* FOG       51  51 100 CALM      30.05F VSB<1/4
MOREHEAD APT*  SUNNY     48  46  93 CALM      30.05F FOG
ASHLAND*       CLEAR     48  46  93 CALM      30.02S
$$

KYZ035-036-041-042-044-050-067-078-099-271300
...CENTRAL KENTUCKY...

CITY           SKY/WX    TMP DP  RH WIND       PRES   REMARKS
MT STERLING*   FOG       46  46 100 SW3       30.06R VSB 1/4
FLEMING/MASON* CLEAR     49  49  97 S7        30.04S
DANVILLE*      CLEAR     45  45 100 S3        30.06S
LEXINGTON      CLEAR     50  48  93 S6        30.04R
6HR MIN TEMP:  49; 6HR MAX TEMP:  53;

FRANKFORT      CLEAR     49  46  90 CALM      30.02S
6HR MIN TEMP:  49; 6HR MAX TEMP:  54;

LOUISVILLE     PTCLDY    54  49  83 SW5       30.02S
6HR MIN TEMP:  52; 6HR MAX TEMP:  59;

LEBANON*         N/A     54  50  87 S5        30.05R
GLASGOW*       FOG      N/A N/A N/A CALM      30.05F VSB 1/4
BOWLING GREEN  FOG       49  47  93 CALM      30.05S VSB<1/4
6HR MIN TEMP:  48; 6HR MAX TEMP:  53;

$$

KYZ091>093-OHZ055-061-077-WVZ005-015-034-035-042-271300
...SOUTHERN OHIO/WEST VIRGINIA...

CITY           SKY/WX    TMP DP  RH WIND       PRES   REMARKS
COVINGTON      CLEAR     49  48  97 S6        30.00S
COLUMBUS       CLEAR     49  48  97 S6        29.97F
DAYTON         CLEAR     50  44  80 SW10      29.97F
WILMINGTON     CLEAR     47  46  97 S5        29.99S
HUNTINGTON     FOG       52  50  93 SW5       30.03S VSB 1
CHARLESTON     FOG       54  53  97 CALM      30.03S VSB 1/2
PINEVILLE*     FOG       52  49  90 MISG      30.11R VSB<1/4
BECKLEY        FOG       50  49  96 CALM      30.06S VSB 1/2
BLUEFIELD      CLOUDY    54  53  97 SW7       30.07S
LOGAN CO APT*  FOG       52  52 100 CALM      30.04S VSB<1/4
$$

VAZ002-007-008-TNZ017-027-036-066-071-271300
...SOUTHWEST VIRGINIA/EAST TENNESSEE...

CITY           SKY/WX    TMP DP  RH WIND       PRES   REMARKS
WISE*          FOG       55  55 100 N6        30.07F VSB<1/4
JONESVILLE*    PTSUNNY   61  55  82 CALM      30.06S
ABINGDON*      CLOUDY    65  62  92 CALM      30.03S
BRISTOL        CLOUDY    65  62  90 N3        30.02R
MORRISTOWN*    CLOUDY    64  61  88 CALM      30.01S
SEVIERVILLE*   CLOUDY    64  63  94 CALM      30.01R
KNOXVILLE      LGT RAIN  62  57  83 N8        30.01S
OAK RIDGE      CLOUDY    63  55  75 E3        30.03S
CROSSVILLE     PTCLDY    57  52  83 NE3       30.06S
NASHVILLE      PTCLDY    56  52  86 CALM      30.06S
$$

...KEY TO REMARKS...
VSB - VISIBILITY IN MILES
WCI - WIND CHILL INDEX
HX  - HEAT INDEX

$$



USA.gov is the U.S. government's official web portal to all federal, state and local government web resources and services.